Mount Holly, NJ

9:08 AM EST on December 11, 2019 (GMT -0500)
South Jersey Regional

Weather History for KVAY - October, 2019

Change the Weather History Date:

Monday, October 28, 2019

  Actual Average (KPNE) Record (KPNE)
Temperature  
Mean Temperature 55 °F -  
Max Temperature 64 °F 59 °F 75 °F (2010)
Min Temperature 46 °F 40 °F 35 °F (2001)
Degree Days  
Heating Degree Days 10    
Growing Degree Days 5 (Base 50)    
Moisture  
Dew Point 49 °F    
Average Humidity 73    
Maximum Humidity 93    
Minimum Humidity 56    
Precipitation  
Precipitation 0.00 in - - ()
Sea Level Pressure  
Sea Level Pressure 30.15 in    
Wind  
Wind Speed 3 mph (NE)    
Max Wind Speed 8 mph    
Max Gust Speed -    
Visibility 10 miles    
Events      
Averages and records for this station are not official NWS values.
T = Trace of Precipitation, MM = Missing Value Source: NWS Daily Summary

Daily Weather History Graph

Daily Weather History Graph

Search for Another Location

Airport or City:

Astronomy

Oct. 28, 2019 Rise Set
Actual Time 7:23 AM EDT 6:02 PM EDT
Civil Twilight 6:55 AM EDT 6:30 PM EDT
Nautical Twilight 6:23 AM EDT 7:01 PM EDT
Astronomical Twilight 5:52 AM EDT 7:33 PM EDT
Moon 7:42 AM EDT (10/28) 6:45 PM EDT (10/28)
Length of Visible Light 11h 34m
Length of Day
10h 38m
New Moon, 0% of the Moon is Illuminated
Oct 28
New Moon
Nov 4
First Quarter
Nov 12
Full
Nov 19
Last Quarter
Nov 26
New

Hourly Weather History & Observations

Time (EDT) Temp. Dew Point Humidity Pressure Visibility Wind Dir Wind Speed Gust Speed Precip Events Conditions
12:54 AM 59.0 °F 46.9 °F 64% 29.95 in 10.0 mi West 3.5 mph - N/A   Clear
1:54 AM 57.0 °F 46.0 °F 67% 29.98 in 10.0 mi NW 5.8 mph - N/A   Clear
2:54 AM 55.9 °F 46.0 °F 69% 29.99 in 10.0 mi WNW 3.5 mph - N/A   Clear
3:54 AM 55.0 °F 46.0 °F 72% 30.01 in 10.0 mi Variable 3.5 mph - N/A   Clear
4:54 AM 53.1 °F 46.0 °F 77% 30.04 in 10.0 mi WNW 3.5 mph - N/A   Clear
5:54 AM 51.1 °F 46.0 °F 83% 30.06 in 10.0 mi Calm Calm - N/A   Clear
6:54 AM 48.0 °F 45.0 °F 89% 30.09 in 10.0 mi Calm Calm - N/A   Clear
7:54 AM 46.9 °F 45.0 °F 93% 30.12 in 10.0 mi Calm Calm - N/A   Clear
8:54 AM 55.0 °F 48.9 °F 80% 30.14 in 10.0 mi Calm Calm - N/A   Clear
9:54 AM 61.0 °F 48.9 °F 64% 30.17 in 10.0 mi NNE 8.1 mph - N/A   Clear
10:54 AM 63.0 °F 48.9 °F 60% 30.18 in 10.0 mi NE 4.6 mph - N/A   Clear
11:54 AM 64.9 °F 48.9 °F 56% 30.19 in 10.0 mi NNE 8.1 mph - N/A   Scattered Clouds
12:54 PM 64.9 °F 48.9 °F 56% 30.19 in 10.0 mi East 6.9 mph - N/A   Overcast
1:54 PM 64.0 °F 50.0 °F 60% 30.18 in 10.0 mi East 5.8 mph - N/A   Overcast
2:54 PM 63.0 °F 51.1 °F 65% 30.19 in 10.0 mi ESE 6.9 mph - N/A   Overcast
3:54 PM 63.0 °F 51.1 °F 65% 30.19 in 10.0 mi Variable 3.5 mph - N/A   Overcast
4:54 PM 62.1 °F 51.1 °F 67% 30.21 in 10.0 mi Calm Calm - N/A   Overcast
5:54 PM 61.0 °F 51.1 °F 70% 30.22 in 10.0 mi Calm Calm - N/A   Overcast
6:54 PM 61.0 °F 48.9 °F 64% 30.22 in 10.0 mi East 5.8 mph - N/A   Overcast
7:54 PM 57.0 °F 51.1 °F 81% 30.23 in 10.0 mi ESE 4.6 mph - N/A   Partly Cloudy
8:54 PM 55.0 °F 51.1 °F 86% 30.25 in 10.0 mi ESE 4.6 mph - N/A   Clear
9:54 PM 54.0 °F 51.1 °F 90% 30.27 in 10.0 mi Calm Calm - N/A   Mostly Cloudy
10:54 PM 55.0 °F 51.1 °F 86% 30.27 in 10.0 mi Calm Calm - N/A   Overcast
11:54 PM 55.0 °F 52.0 °F 89% 30.27 in 10.0 mi Calm Calm - N/A   Overcast